Tillbaka till svenska Fidonet
English   Information   Debug  
FILM   0/18
FNEWS_PUBLISH   4569
FN_SYSOP   41808
FN_SYSOP_OLD1   71952
FTP_FIDO   0/2
FTSC_PUBLIC   0/13887
FUNNY   0/4886
GENEALOGY.EUR   0/71
GET_INFO   105
GOLDED   0/408
HAM   1615/16128
HOLYSMOKE   0/6791
HOT_SITES   0/1
HTMLEDIT   0/71
HUB203   466
HUB_100   264
HUB_400   39
HUMOR   0/29
IC   0/2851
INTERNET   0/424
INTERUSER   0/3
IP_CONNECT   719
JAMNNTPD   0/233
JAMTLAND   0/47
KATTY_KORNER   0/41
LAN   0/16
LINUX-USER   0/19
LINUXHELP   0/1155
LINUX   0/22169
LINUX_BBS   0/957
mail   18.68
mail_fore_ok   249
MENSA   0/341
MODERATOR   0/102
MONTE   0/992
MOSCOW_OKLAHOMA   0/1245
MUFFIN   0/783
MUSIC   0/321
N203_STAT   938
N203_SYSCHAT   313
NET203   321
NET204   69
NET_DEV   0/10
NORD.ADMIN   0/101
NORD.CHAT   0/2572
NORD.FIDONET   189
NORD.HARDWARE   0/28
NORD.KULTUR   0/114
NORD.PROG   0/32
NORD.SOFTWARE   0/88
NORD.TEKNIK   0/58
NORD   0/453
OCCULT_CHAT   0/93
OS2BBS   0/787
OS2DOSBBS   0/580
OS2HW   0/42
OS2INET   0/37
OS2LAN   0/134
OS2PROG   0/36
OS2REXX   0/113
OS2USER-L   207
OS2   0/4804
OSDEBATE   0/18996
PASCAL   0/490
PERL   0/457
PHP   0/45
POINTS   0/405
POLITICS   0/29554
POL_INC   0/14731
PSION   103
R20_ADMIN   1129
R20_AMATORRADIO   0/2
R20_BEST_OF_FIDONET   14
R20_CHAT   0/893
R20_DEPP   0/3
R20_DEV   399
R20_ECHO2   1490
R20_ECHOPRES   0/35
R20_ESTAT   0/719
R20_FIDONETPROG...
...RAM.MYPOINT
  0/2
R20_FIDONETPROGRAM   0/22
R20_FIDONET   0/248
R20_FILEFIND   0/24
R20_FILEFOUND   0/22
R20_HIFI   0/3
R20_INFO2   3380
R20_INTERNET   0/12940
R20_INTRESSE   0/60
R20_INTR_KOM   0/99
R20_KANDIDAT.CHAT   42
R20_KANDIDAT   28
R20_KOM_DEV   112
R20_KONTROLL   0/13360
R20_KORSET   0/18
R20_LOKALTRAFIK   0/24
R20_MODERATOR   0/1852
R20_NC   76
R20_NET200   245
R20_NETWORK.OTH...
...ERNETS
  0/13
R20_OPERATIVSYS...
...TEM.LINUX
  0/44
R20_PROGRAMVAROR   0/1
R20_REC2NEC   534
R20_SFOSM   0/341
R20_SF   0/108
R20_SPRAK.ENGLISH   0/1
R20_SQUISH   107
R20_TEST   2
R20_WORST_OF_FIDONET   20
RAR   0/9
RA_MULTI   106
RA_UTIL   0/162
REGCON.EUR   0/2066
REGCON   0/13
SCIENCE   0/1206
SF   0/239
SHAREWARE_SUPPORT   0/5146
SHAREWRE   0/14
SIMPSONS   0/169
STATS_OLD1   0/2539.065
STATS_OLD2   0/2530
STATS_OLD3   0/2395.095
STATS_OLD4   0/1692.25
SURVIVOR   0/495
SYSOPS_CORNER   0/3
SYSOP   0/84
TAGLINES   0/112
TEAMOS2   0/4530
TECH   0/2617
TEST.444   0/105
TRAPDOOR   0/19
TREK   0/755
TUB   0/290
UFO   0/40
UNIX   0/1316
USA_EURLINK   0/102
USR_MODEMS   0/1
VATICAN   0/2740
VIETNAM_VETS   0/14
VIRUS   0/378
VIRUS_INFO   0/201
VISUAL_BASIC   0/473
WHITEHOUSE   0/5187
WIN2000   0/101
WIN32   0/30
WIN95   0/4291
WIN95_OLD1   61953/70272
WINDOWS   0/1517
WWB_SYSOP   0/419
WWB_TECH   0/810
ZCC-PUBLIC   0/1
ZEC   4

 
4DOS   0/134
ABORTION   0/7
ALASKA_CHAT   0/506
ALLFIX_FILE   0/1313
ALLFIX_FILE_OLD1   0/7997
ALT_DOS   0/152
AMATEUR_RADIO   0/1039
AMIGASALE   0/14
AMIGA   0/331
AMIGA_INT   0/1
AMIGA_PROG   0/20
AMIGA_SYSOP   0/26
ANIME   0/15
ARGUS   0/924
ASCII_ART   0/340
ASIAN_LINK   0/651
ASTRONOMY   0/417
AUDIO   0/92
AUTOMOBILE_RACING   0/105
BABYLON5   0/17862
BAG   135
BATPOWER   0/361
BBBS.ENGLISH   0/382
BBSLAW   0/109
BBS_ADS   0/5290
BBS_INTERNET   0/507
BIBLE   0/3563
BINKD   0/1119
BINKLEY   0/215
BLUEWAVE   0/2173
CABLE_MODEMS   0/25
CBM   0/46
CDRECORD   0/66
CDROM   0/20
CLASSIC_COMPUTER   0/378
COMICS   0/15
CONSPRCY   0/899
COOKING   36210
COOKING_OLD1   0/24719
COOKING_OLD2   0/40862
COOKING_OLD3   0/37489
COOKING_OLD4   0/35496
COOKING_OLD5   9370
C_ECHO   0/189
C_PLUSPLUS   0/31
DIRTY_DOZEN   0/201
DOORGAMES   0/2114
DOS_INTERNET   0/196
duplikat   6002
ECHOLIST   7063/18295
EC_SUPPORT   0/318
ELECTRONICS   0/359
ELEKTRONIK.GER   1534
ENET.LINGUISTIC   0/13
ENET.POLITICS   0/4
ENET.SOFT   0/11701
ENET.SYSOP   34076
ENET.TALKS   0/32
ENGLISH_TUTOR   0/2000
EVOLUTION   0/1335
FDECHO   0/217
FDN_ANNOUNCE   0/7068
FIDONEWS   24344
FIDONEWS_OLD1   0/49742
FIDONEWS_OLD2   0/35949
FIDONEWS_OLD3   0/30874
FIDONEWS_OLD4   0/37224
FIDO_SYSOP   12854
FIDO_UTIL   0/180
FILEFIND   0/209
FILEGATE   0/212
Möte HAM, 16128 texter
 lista första sista föregående nästa
Text 2973, 774 rader
Skriven 2009-05-21 22:00:28 av Amsat List (1:323/120.0)
Ärende: [keps]  orb09141.amsa
=============================
[keps]  orb09141.amsa

Return-Path: <keps-bounces@amsat.org>
X-Rcpt: craig.healy@chowda.com
X-UIDL: 1242954554.45014

SB KEPS @ AMSAT  $ORB09141.O
Orbital Elements  09141.OSCAR

HR AMSAT ORBITAL ELEMENTS FOR OSCAR SATELLITES
FROM WA5QGD FORT WORTH,TX May 21, 2009
Send Subscribe/unsubscribe to KEPS at 
http://www.amsat.org/mailman/listinfo/keps
BID: ORB09141.O
TO ALL RADIO AMATEURS BT

Satellite: AO-07
Catalog number: 07530
Epoch time:      09141.51321670
Element set:     483
Inclination:      101.4280 deg
RA of node:       167.1677 deg
Eccentricity:    0.0011499
Arg of perigee:   321.5723 deg
Mean anomaly:     038.4534 deg
Mean motion:   12.53575780 rev/day
Decay rate:       -2.7e-07 rev/day^2
Epoch rev:           57937
Checksum:              297

Satellite: FO-29
Catalog number: 24278
Epoch time:      09141.82448630
Element set:      46
Inclination:      098.5581 deg
RA of node:       019.4013 deg
Eccentricity:    0.0351322
Arg of perigee:   058.7636 deg
Mean anomaly:     304.7427 deg
Mean motion:   13.52943770 rev/day
Decay rate:       -1.7e-07 rev/day^2
Epoch rev:           63018
Checksum:              305

Satellite: SO-33
Catalog number: 25509
Epoch time:      09140.51715838
Element set:     457
Inclination:      031.4297 deg
RA of node:       208.9503 deg
Eccentricity:    0.0354048
Arg of perigee:   096.6798 deg
Mean anomaly:     267.4253 deg
Mean motion:   14.28250825 rev/day
Decay rate:      -1.66e-06 rev/day^2
Epoch rev:           55187
Checksum:              333

Satellite: RS-22
Catalog number: 27939
Epoch time:      09140.77866679
Element set:    0795
Inclination:      097.9493 deg
RA of node:       016.6412 deg
Eccentricity:    0.0012870
Arg of perigee:   215.6304 deg
Mean anomaly:     144.4040 deg
Mean motion:   14.63316865 rev/day
Decay rate:        5.3e-07 rev/day^2
Epoch rev:           30156
Checksum:              319

Satellite: VO-52
Catalog number: 28650
Epoch time:      09141.50766749
Element set:     228
Inclination:      097.7436 deg
RA of node:       203.9687 deg
Eccentricity:    0.0028289
Arg of perigee:   115.6308 deg
Mean anomaly:     244.7818 deg
Mean motion:   14.81585062 rev/day
Decay rate:        2.6e-07 rev/day^2
Epoch rev:           21869
Checksum:              342

/EX
SB KEPS @ AMSAT  $ORB09141.D
Orbital Elements  09141.MICROS

HR AMSAT ORBITAL ELEMENTS FOR THE MICROSATS
FROM WA5QGD FORT WORTH,TX May 21, 2009
Send Subscribe/unsubscribe to KEPS at 
http://www.amsat.org/mailman/listinfo/keps
BID: ORB09141.D
TO ALL RADIO AMATEURS BT

Satellite: AO-16
Catalog number: 20439
Epoch time:      09141.50938267
Element set:     609
Inclination:      098.2759 deg
RA of node:       111.1279 deg
Eccentricity:    0.0009928
Arg of perigee:   250.8963 deg
Mean anomaly:     109.1154 deg
Mean motion:   14.31824282 rev/day
Decay rate:        1.5e-07 rev/day^2
Epoch rev:             933
Checksum:              306

Satellite: LO-19
Catalog number: 20442
Epoch time:      09140.66241990
Element set:    0530
Inclination:      098.2399 deg
RA of node:       117.6894 deg
Eccentricity:    0.0010922
Arg of perigee:   247.2756 deg
Mean anomaly:     112.7281 deg
Mean motion:   14.32060036 rev/day
Decay rate:        2.7e-07 rev/day^2
Epoch rev:           00937
Checksum:              290

Satellite: AO-27
Catalog number: 22825
Epoch time:      09140.77325857
Element set:     246
Inclination:      098.4332 deg
RA of node:       095.0621 deg
Eccentricity:    0.0008329
Arg of perigee:   351.9217 deg
Mean anomaly:     008.1829 deg
Mean motion:   14.29265349 rev/day
Decay rate:       -8.4e-07 rev/day^2
Epoch rev:           81599
Checksum:              329

Satellite: IO-26
Catalog number: 22826
Epoch time:      09141.39822891
Element set:     973
Inclination:      098.4272 deg
RA of node:       096.4275 deg
Eccentricity:    0.0008799
Arg of perigee:   345.7731 deg
Mean anomaly:     014.3203 deg
Mean motion:   14.29517637 rev/day
Decay rate:        1.4e-07 rev/day^2
Epoch rev:           81618
Checksum:              330

Satellite: GO-32
Catalog number: 25397
Epoch time:      09140.58281978
Element set:    0898
Inclination:      098.3277 deg
RA of node:       164.4009 deg
Eccentricity:    0.0001017
Arg of perigee:   025.6337 deg
Mean anomaly:     334.4886 deg
Mean motion:   14.23158955 rev/day
Decay rate:        3.1e-07 rev/day^2
Epoch rev:           56420
Checksum:              324

Satellite: NO-44
Catalog number: 26931
Epoch time:      09141.48874922
Element set:     173
Inclination:      067.0503 deg
RA of node:       133.1261 deg
Eccentricity:    0.0005576
Arg of perigee:   271.9054 deg
Mean anomaly:     088.1448 deg
Mean motion:   14.29556794 rev/day
Decay rate:        8.6e-07 rev/day^2
Epoch rev:           39876
Checksum:              331

Satellite: SO-50
Catalog number: 27607
Epoch time:      09140.73038302
Element set:    0890
Inclination:      064.5570 deg
RA of node:       108.4791 deg
Eccentricity:    0.0070127
Arg of perigee:   211.9836 deg
Mean anomaly:     147.6985 deg
Mean motion:   14.71436291 rev/day
Decay rate:       -4.0e-08 rev/day^2
Epoch rev:           34463
Checksum:              303

Satellite: CO-55
Catalog number: 27844
Epoch time:      09141.58071482
Element set:     583
Inclination:      098.7118 deg
RA of node:       151.1226 deg
Eccentricity:    0.0009074
Arg of perigee:   218.0738 deg
Mean anomaly:     141.9800 deg
Mean motion:   14.20637822 rev/day
Decay rate:        2.7e-07 rev/day^2
Epoch rev:           30548
Checksum:              300

